Location: Tel Aviv
(32.0670°N, 34.7670°E)
Time: 08:57:12
(UTC+02:00)

A-11 Canister half - Pass Details

Date: 07 December 2023
Orbit: 1526 x 1682 km, 47.3° (Epoch: 01 March)

Event Time Altitude Azimuth Distance (km) Brightness Sun altitude
Rises 19:23:17 0° 266° (W) 4,923 12.7 -34.6°
Reaches altitude 10° 19:26:45 10° 274° (W) 3,941 11.9 -35.4°
Maximum altitude 19:36:08 41° 342° (NNW) 2,293 9.8 -37.3°
Enters shadow 19:37:33 39° 360° (N) 2,341 9.8 -37.6°
